This demonstration page uses our WeatherBlox Daily Observations layout. Learn more.

Left ArrowRight Arrow

34.74481, -87.66753

Hourly Observations for March 15, 2018

Temp ( °F °C ) Dew Point ( °F °C ) Humidity (%) Winds ( mph kmh ) Pressure ( in mb ) Visibility ( mi km ) Precip ( " mm )
12:53 am 00:53 Clear 35 1.7 24 -4.4 64 64 Calm 30.14 1021 10 16 0.00 0.00
1:53 am 01:53 Clear 34 1.1 28 -2.2 79 79 S 3 6 30.13 1020 10 16 0.00 0.00
2:53 am 02:53 Clear 34 1.1 24 -4.4 67 67 Calm 30.12 1020 10 16 0.00 0.00
3:53 am 03:53 Clear 33 0.6 25 -3.9 72 72 Calm 30.10 1019 10 16 0.00 0.00
4:53 am 04:53 Clear 34 1.1 23 -5 64 64 Calm 30.10 1019 10 16 0.00 0.00
5:53 am 05:53 Clear 33 0.6 27 -2.8 78 78 Calm 30.10 1019 10 16 0.00 0.00
6:53 am 06:53 Clear 36 2.2 24 -4.4 62 62 WSW 5 7 30.11 1020 10 16 0.00 0.00
7:53 am 07:53 Sunny 35 1.7 28 -2.2 76 76 Calm 30.11 1020 10 16 0.00 0.00
8:53 am 08:53 Sunny 47 8.3 27 -2.8 46 46 W 7 11 30.11 1020 10 16 0.00 0.00
9:53 am 09:53 Sunny 55 12.8 26 -3.3 33 33 WSW 14 22 30.11 1020 10 16 0.00 0.00
10:53 am 10:53 Sunny 59 15 26 -3.3 28 28 W 12 19 30.10 1019 10 16 0.00 0.00
11:53 am 11:53 Sunny 64 17.8 27 -2.8 25 25 W 16 26 30.08 1019 10 16 0.00 0.00
12:53 pm 12:53 Sunny 65 18.3 25 -3.9 22 22 WNW 15 24 30.06 1018 10 16 0.00 0.00
1:53 pm 13:53 Sunny 68 20 26 -3.3 21 21 WSW 16 26 30.03 1017 10 16 0.00 0.00
2:53 pm 14:53 Sunny 69 20.6 24 -4.4 18 18 WSW 13 20 29.99 1016 10 16 0.00 0.00
3:53 pm 15:53 Sunny 70 21.1 24 -4.4 18 18 SW 14 22 29.97 1015 10 16 0.00 0.00
4:53 pm 16:53 Sunny 69 20.6 25 -3.9 19 19 SW 15 24 29.96 1015 10 16 0.00 0.00
5:53 pm 17:53 Sunny 67 19.4 26 -3.3 21 21 WSW 13 20 29.96 1014 10 16 0.00 0.00
6:53 pm 18:53 Sunny 62 16.7 28 -2.2 28 28 WSW 8 13 29.96 1015 7 11 0.00 0.00
7:53 pm 19:53 Clear 58 14.4 29 -1.7 33 33 SW 7 11 29.97 1015 10 16 0.00 0.00
8:53 pm 20:53 Clear 56 13.3 30 -1.1 37 37 SSW 6 9 29.97 1015 10 16 0.00 0.00
9:53 pm 21:53 Clear 53 11.7 32 0 45 45 S 5 7 29.98 1015 10 16 0.00 0.00
10:53 pm 22:53 Clear 52 11.1 32 0 47 47 S 5 7 29.98 1015 10 16 0.00 0.00
11:53 pm 23:53 Clear 51 10.6 30 -1.1 44 44 SSW 6 9 29.97 1015 10 16 0.00 0.00

Powered by AerisWeather